Weather History for Covington, KY

Change the Weather History Date:

Sunday, October 28, 2012

  Actual Average Record
Temperature  
Mean Temperature 45 °F 52 °F  
Max Temperature 48 °F 62 °F 84 °F (1927)
Min Temperature 42 °F 42 °F 19 °F (1976)
Degree Days  
Heating Degree Days 20 13  
Month to date heating degree days 278 262  
Since 1 July heating degree days 355 320  
Cooling Degree Days 0 0  
Month to date cooling degree days 7 16  
Year to date cooling degree days 1439 1121  
Moisture  
Dew Point 34 °F    
Average Humidity 63    
Maximum Humidity 70    
Minimum Humidity 56    
Precipitation  
Precipitation 0.00 in 0.10 in 2.15 in (1883)
Month to date precipitation 2.47 2.97  
Year to date precipitation 31.43 35.39  
Snow  
Snow 0.00 in 0.00 in 2.20 in (1925)
Month to date snowfall 0.0 0.3  
Since 1 July snowfall 0.0 0.3  
Since 1 September snowfall 0.0 0.3  
Snow Depth 0.00 in    
Sea Level Pressure  
Sea Level Pressure 30.05 in    
Wind  
Wind Speed 16 mph (North)    
Max Wind Speed 25 mph    
Max Gust Speed 32 mph    
Visibility 10 miles    
Events      
T = Trace of Precipitation, MM = Missing Value Source: NWS Daily Summary

Daily Weather History Graph

Daily Weather History Graph

Search for Another Location

Airport:

Trip Planner

Search our weather history database for the weather conditions in past years. The results will help you decide how hot, cold, wet, or windy it might be!

Date:

Astronomy

Oct. 28, 2012 Rise Set
Actual Time 8:02 AM EDT 6:41 PM EDT
Civil Twilight 7:34 AM EDT 7:09 PM EDT
Nautical Twilight 7:03 AM EDT 7:40 PM EDT
Astronomical Twilight 6:32 AM EDT 8:11 PM EDT
Moon 5:59 PM EDT (10/28) 6:54 AM EDT (10/28)
Length of Visible Light 11h 34m
Length of Day
10h 39m
Waxing Gibbous, 99% of the Moon is Illuminated
Oct 28
Waxing Gibbous
Oct 29
Full
Nov 6
Last Quarter
Nov 13
New
Nov 20
First Quarter

Hourly Weather History & Observations

Time (EDT) Temp. Windchill Dew Point Humidity Pressure Visibility Wind Dir Wind Speed Gust Speed Precip Events Conditions
12:52 AM 46.9 °F - 35.1 °F 63% 30.09 in 10.0 mi NNE 10.4 mph - N/A   Mostly Cloudy
1:52 AM 46.9 °F - 35.1 °F 63% 30.06 in 10.0 mi North 13.8 mph 23.0 mph N/A   Overcast
2:52 AM 45.0 °F 38.9 °F 34.0 °F 65% 30.06 in 10.0 mi North 12.7 mph - N/A   Overcast
3:52 AM 45.0 °F 39.7 °F 34.0 °F 65% 30.06 in 10.0 mi NNE 10.4 mph - N/A   Overcast
4:52 AM 44.1 °F 38.6 °F 34.0 °F 68% 30.05 in 10.0 mi North 10.4 mph - N/A   Overcast
5:52 AM 43.0 °F 36.8 °F 34.0 °F 71% 30.06 in 10.0 mi North 11.5 mph - N/A   Overcast
6:52 AM 43.0 °F 36.4 °F 34.0 °F 71% 30.05 in 10.0 mi North 12.7 mph - N/A   Overcast
7:52 AM 43.0 °F 36.4 °F 34.0 °F 71% 30.06 in 10.0 mi North 12.7 mph - N/A   Overcast
8:52 AM 43.0 °F 35.7 °F 34.0 °F 71% 30.08 in 10.0 mi North 15.0 mph 23.0 mph N/A   Overcast
9:52 AM 44.1 °F 36.2 °F 35.1 °F 71% 30.05 in 10.0 mi North 18.4 mph 28.8 mph N/A   Overcast
10:52 AM 45.0 °F 37.1 °F 35.1 °F 68% 30.06 in 10.0 mi North 19.6 mph 29.9 mph N/A   Overcast
11:52 AM 46.0 °F 39.3 °F 35.1 °F 66% 30.04 in 10.0 mi North 16.1 mph 26.5 mph N/A   Overcast
12:07 PM 46.4 °F 39.2 °F 35.6 °F 66% 30.04 in 10.0 mi North 18.4 mph 24.2 mph N/A   Overcast
12:52 PM 46.9 °F - 35.1 °F 63% 30.04 in 10.0 mi North 20.7 mph - N/A   Overcast
1:52 PM 46.9 °F - 34.0 °F 61% 30.04 in 10.0 mi North 19.6 mph 24.2 mph N/A   Overcast
2:52 PM 48.0 °F - 34.0 °F 58% 30.03 in 10.0 mi North 18.4 mph - N/A   Overcast
4:52 PM 48.0 °F - 34.0 °F 58% 30.03 in 10.0 mi North 19.6 mph 25.3 mph N/A   Overcast
5:52 PM 46.9 °F - 34.0 °F 61% 30.03 in 10.0 mi North 15.0 mph - N/A   Overcast
6:52 PM 46.9 °F - 34.0 °F 61% 30.05 in 10.0 mi North 18.4 mph - N/A   Overcast
7:52 PM 46.0 °F 40.2 °F 34.0 °F 63% 30.06 in 10.0 mi NNW 12.7 mph - N/A   Overcast
8:52 PM 46.0 °F 38.8 °F 32.0 °F 58% 30.06 in 10.0 mi North 18.4 mph 32.2 mph N/A   Overcast
9:52 PM 45.0 °F 38.2 °F 32.0 °F 60% 30.06 in 10.0 mi NNW 15.0 mph 25.3 mph N/A   Overcast
10:52 PM 44.1 °F 36.8 °F 32.0 °F 63% 30.06 in 10.0 mi North 16.1 mph 23.0 mph N/A   Overcast
11:52 PM 43.0 °F 36.4 °F 30.9 °F 62% 30.06 in 10.0 mi North 12.7 mph 20.7 mph N/A   Mostly Cloudy